TimeMST,TemperatureF,Dew PointF,Humidity,Sea Level PressureIn,VisibilityMPH,Wind Direction,Wind SpeedMPH,Gust SpeedMPH,PrecipitationIn,Events,Conditions,WindDirDegrees,DateUTC
12:53 AM,27.0,21.9,81,30.21,10.0,SE,6.9,-,N/A,,Clear,130,2012-11-19 07:53:00
1:53 AM,26.1,21.0,81,30.23,10.0,Calm,Calm,-,N/A,,Clear,0,2012-11-19 08:53:00
2:53 AM,24.1,19.9,84,30.24,10.0,Calm,Calm,-,N/A,,Clear,0,2012-11-19 09:53:00
3:53 AM,24.1,19.9,84,30.24,10.0,Calm,Calm,-,N/A,,Partly Cloudy,0,2012-11-19 10:53:00
4:53 AM,24.1,19.9,84,30.27,10.0,ENE,4.6,-,N/A,,Partly Cloudy,70,2012-11-19 11:53:00
5:53 AM,21.9,18.0,85,30.32,10.0,Calm,Calm,-,N/A,,Clear,0,2012-11-19 12:53:00
6:53 AM,21.9,18.0,85,30.34,10.0,ENE,6.9,-,N/A,,Clear,60,2012-11-19 13:53:00
7:53 AM,28.0,23.0,81,30.35,10.0,Calm,Calm,-,N/A,,Clear,0,2012-11-19 14:53:00
8:53 AM,36.0,28.0,73,30.34,10.0,Calm,Calm,-,N/A,,Clear,0,2012-11-19 15:53:00
9:53 AM,46.9,28.9,50,30.32,10.0,Calm,Calm,-,N/A,,Clear,0,2012-11-19 16:53:00
10:53 AM,51.1,28.9,43,30.31,10.0,SW,4.6,-,N/A,,Clear,230,2012-11-19 17:53:00
11:53 AM,55.0,30.0,38,30.28,10.0,SSW,10.4,-,N/A,,Clear,210,2012-11-19 18:53:00
12:53 PM,55.9,28.0,34,30.26,10.0,SW,10.4,-,N/A,,Clear,220,2012-11-19 19:53:00
1:53 PM,55.9,27.0,33,30.26,10.0,SSW,11.5,-,N/A,,Clear,200,2012-11-19 20:53:00
2:53 PM,55.9,27.0,33,30.25,10.0,WSW,5.8,-,N/A,,Clear,240,2012-11-19 21:53:00
3:53 PM,55.0,27.0,34,30.26,10.0,SW,9.2,-,N/A,,Clear,230,2012-11-19 22:53:00
4:53 PM,48.9,24.1,38,30.30,10.0,WNW,5.8,-,N/A,,Clear,290,2012-11-19 23:53:00
5:53 PM,41.0,24.1,51,30.36,10.0,South,3.5,-,N/A,,Clear,190,2012-11-20 00:53:00
6:53 PM,34.0,23.0,64,30.40,10.0,ENE,6.9,-,N/A,,Clear,60,2012-11-20 01:53:00
7:53 PM,30.9,21.9,69,30.40,10.0,ENE,5.8,-,N/A,,Clear,60,2012-11-20 02:53:00
8:53 PM,32.0,23.0,69,30.38,10.0,Calm,Calm,-,N/A,,Clear,0,2012-11-20 03:53:00
9:53 PM,30.0,23.0,75,30.35,10.0,East,3.5,-,N/A,,Clear,80,2012-11-20 04:53:00
10:53 PM,27.0,21.0,78,30.34,10.0,East,3.5,-,N/A,,Clear,80,2012-11-20 05:53:00
11:53 PM,26.1,19.9,78,30.33,10.0,Calm,Calm,-,N/A,,Clear,0,2012-11-20 06:53:00